Simultaneous Nadir Overpasses (SNOs) Predictions

Prediction of SNOs between LANDSAT-8 and NPP Satellite Orbit:

Table of predicted SNOs for the next 14.0 days since TLE Epoch: 1/28/2024
Index Date (LANDSAT-8) Time (LANDSAT-8) Lat,Lon (LANDSAT-8) SZA (LANDSAT-8 ) Date (NPP) Time (NPP) Lat,Lon (NPP) SZA (NPP ) Distance(km) Time Diff (sec)
1 01/28/2024 22:25:26 70.16,-159.85 88.32 01/28/2024 22:24:37 70.15,-159.82 88.31 2.25 49
2 01/28/2024 23:14:56 -70.06, 7.63 91.79 01/28/2024 23:15:19 -70.05, 7.64 91.80 0.68 23
3 01/31/2024 14:41:58 70.11, -44.06 87.55 01/31/2024 14:41:32 70.14, -44.04 87.59 3.37 26
4 01/31/2024 15:31:27 -70.06, 123.50 92.51 01/31/2024 15:32:14 -70.04, 123.42 92.53 3.41 47
5 02/03/2024 06:08:59 -70.35, -95.48 92.98 02/03/2024 06:07:46 -70.41, -96.00 92.89 20.05 73
6 02/03/2024 06:58:29 70.08, 71.77 86.76 02/03/2024 06:58:26 70.09, 71.80 86.77 1.74 3
7 02/03/2024 07:47:59 -69.98,-120.74 93.35 02/03/2024 07:49:08 -69.99,-120.73 93.35 1.85 69
8 02/05/2024 22:25:31 -70.19, 20.15 93.93 02/05/2024 22:24:36 -70.21, 20.09 93.89 3.41 55
9 02/05/2024 23:14:58 70.08,-172.36 85.96 02/05/2024 23:15:19 70.05,-172.37 85.94 2.39 21
10 02/06/2024 00:04:41 -69.26, -5.85 94.82 02/06/2024 00:05:48 -69.26, -3.89 94.91 77.06 67
11 02/08/2024 14:42:01 -70.15, 135.97 94.79 02/08/2024 14:41:29 -70.13, 135.99 94.81 2.91 32
12 02/08/2024 15:31:28 70.04, -56.54 85.10 02/08/2024 15:32:13 70.03, -56.55 85.08 1.46 45



Historial Predications of SNOs between LANDSAT-8 and NPP
